Regional Weather Roundup
Issued by NWS

Home | Current Version | Previous Version | Graphics & Text | Print | Product List | Glossary Off
Versions: 1 2 3 4 5 6 7 8 9 10 11 12 13 14 15 16 17 18 19 20 21 22 23 24 25 26 27 28 29 30 31 32 33 34 35 36 37 38 39 40 41 42 43 44 45 46 47 48 49 50

000
ASUS43 KMPX 022201
RWRMN
WEATHER ROUNDUP FOR MINNESOTA
NATIONAL WEATHER SERVICE TWIN CITIES/CHANHASSEN MN
500 PM CDT THU JUL 02 2015


NOTE: "FAIR" INDICATES FEW OR NO CLOUDS BELOW 12,000 FEET WITH NO
SIGNIFICANT WEATHER AND/OR OBSTRUCTIONS TO VISIBILITY. N/A MEANS
CURRENT SKY AND/OR WEATHER CONDITIONS ARE NOT AVAILABLE.

MNZ060>063-068>070-022300-
   Twin Cities Metro

CITY           SKY/WX    TMP DP  RH WIND       PRES   REMARKS
TWIN CITIES    PTSUNNY   76  53  44 S7        29.99F
ST PAUL        MOSUNNY   75  57  53 S8        29.99F
CRYSTAL        MOSUNNY   78  51  38 S7        29.98S
BLAINE         MOSUNNY   79  54  41 SE7       29.99
LAKEVILLE      MOSUNNY   73  54  49 S3        30.00F
EDEN PRAIRIE   MOSUNNY   75  54  47 S8        29.99S
SOUTH ST PAUL  MOSUNNY   75  54  47 S7        29.99F
LAKE ELMO      FAIR      75  54  46 S3        30.01S
$$
MNZ001>005-007-008-013>017-022>024-027-028-022300-
   Northwest Minnesota

CITY           SKY/WX    TMP DP  RH WIND       PRES   REMARKS
BEMIDJI        MOSUNNY   74  56  52 SW9       29.97S
HALLOCK        MOSUNNY   79  64  61 S12       29.87F
ROSEAU         MOSUNNY   75  64  69 SW12      29.90F
WARROAD        MOSUNNY   73  63  68 SW10G16   29.90F
THIEF RVR FALL PTSUNNY   75  57  53 S10       29.93F
CROOKSTON      CLOUDY    75  59  57 S12       29.92F
FOSSTON        SUNNY     73  55  53 SW10      29.95F
DETROIT LAKES  SUNNY     73  54  49 S8        30.00S
MOORHEAD       SUNNY     75  54  46 S8        29.95F
PARK RAPIDS    SUNNY     77  54  44 SW12      29.98F
MAHNOMEN       FAIR      75  55  50 SW10G16   29.97S
$$
MNZ006-009>011-018-025>026-022300-
   North Central Minnesota

CITY           SKY/WX    TMP DP  RH WIND       PRES   REMARKS
BAUDETTE       MOSUNNY   75  53  46 SW12      29.91F
FLAG ISLAND    MOSUNNY   73  61  64 SW12      29.87F
INTL FALLS     PTSUNNY   75  58  55 W7        29.91F
WASKISH        MOSUNNY   75  61  60 SW8       29.94S
BIG FORK       MOSUNNY   75  59  57 SW8       29.96F
LONGVILLE      SUNNY     75  57  53 SW6       29.97F
GRAND RAPIDS   MOSUNNY   75  55  50 SW8       29.97F
CRANE LAKE     MOSUNNY   73  57  56 SW6       29.94F
ORR            MOSUNNY   75  55  50 W8        29.92F
COOK           MOSUNNY   75  57  53 SW10      29.95F
WALKER         FAIR      75  56  50 S8        29.97F
$$
MNZ012-019>021-037-022300-
   Northeast Minnesota

CITY           SKY/WX    TMP DP  RH WIND       PRES   REMARKS
DULUTH         PTSUNNY   75  57  53 VRB3      29.97F
ELY            PTSUNNY   75  55  50 W7        29.94F
HIBBING        MOSUNNY   76  57  51 W7        29.96F
DULUTH HARBOR  MOSUNNY   79  59  50 SW12      29.95F
TWO HARBORS    MOSUNNY   79  64  61 SW8       29.94F
GRAND MARAIS     N/A     56  52  86 CALM      29.93F
G MARAIS ARPRT PTSUNNY   64  57  77 S6        29.98F
$$
MNZ029>031-032-039>041-046>048-054>057-064-022300-
   West Central Minnesota

CITY           SKY/WX    TMP DP  RH WIND       PRES   REMARKS
FERGUS FALLS   SUNNY     73  52  46 S8        29.98S
WHEATON        SUNNY     73  50  43 SW5       29.99F
MORRIS         MOSUNNY   75  46  35 S7        29.99S
ALEXANDRIA     SUNNY     73  52  47 SW6       30.02S
ELBOW LAKE     FAIR      73  49  42 SE7       29.99F
WADENA         SUNNY     75  55  50 S8        29.99F
GLENWOOD       MOSUNNY   73  50  43 S8        30.02S
APPLETON       MOSUNNY   79  46  31 SE6       29.99S
BENSON         PTSUNNY   75  46  35 S6        29.99F
ORTONVILLE     MOSUNNY   73  50  43 CALM      29.99S
MADISON        PTSUNNY   73  50  43 CALM      29.99S
WILLMAR        FAIR      75  48  38 SW3       30.01F
$$
MNZ033>034-036-042>043-049>051-058-059-022300-
   Central Minnesota

CITY           SKY/WX    TMP DP  RH WIND       PRES   REMARKS
ST CLOUD       MOSUNNY   76  53  44 S8        30.00S
SAUK CENTRE    FAIR      73  56  54 S6        30.01S
PAYNESVILLE    MOSUNNY   72  51  48 E5        30.01F
AITKIN         MOSUNNY   75  59  57 S6        29.97F
PINE RIVER       N/A     75  55  50 S7        30.01F
BRAINERD       MOSUNNY   77  52  41 S12       29.99F
STAPLES        SUNNY     75  54  46 S8        30.00S
LONG PRAIRIE   PTSUNNY   72  55  56 S6        30.02S
LITTLE FALLS   MOSUNNY   75  48  38 SW7       29.99F
LITCHFIELD     MOSUNNY   75  55  50 SE5       30.01S
BUFFALO        MOSUNNY   74  54  49 SW3       30.01S
MAPLE LAKE     MOSUNNY   74  58  57 S5        30.01F
$$
MNZ037-044-045-052-053-022300-
   East Central Minnesota

CITY           SKY/WX    TMP DP  RH WIND       PRES   REMARKS
PRINCETON      MOSUNNY   79  55  44 SW3       29.99F
MORA           SUNNY     73  50  43 S9        30.01S
CAMBRIDGE      SUNNY     79  57  47 S5        29.98S
RUSH CITY      SUNNY     76  51  42 S3        30.00S
MOOSE LAKE     MOSUNNY   75  63  64 S5        29.97S
HINCKLEY       FAIR      77  54  44 SW6       29.99S
CLOQUET        MOSUNNY   75  54  46 S9        29.98S
MCGREGOR       MOSUNNY   77  57  50 SW8       29.99S
$$
MNZ071>073-080-081-089-090-097-098-022300-
   Southwest Minnesota

CITY           SKY/WX    TMP DP  RH WIND       PRES   REMARKS
MONTEVIDEO     PTSUNNY   77  52  41 SW5       30.00F
GRANITE FALLS  PTSUNNY   73  49  41 CALM      30.01F
CANBY          PTSUNNY   71  55  55 E3        30.00F
MARSHALL       PTSUNNY   72  48  43 S7        29.99S
REDWOOD FALLS  PTSUNNY   76  51  41 S7        29.99F
OLIVIA         PTSUNNY   72  46  40 S3        30.00S
PIPESTONE      CLOUDY    70  52  52 S5        30.01S
WINDOM         MOSUNNY   75  43  31 SE5       30.01S
WORTHINGTON    CLOUDY    68  46  45 E5        30.02S
JACKSON        PTSUNNY   72  46  40 SE6       30.02S
TRACY          PTSUNNY   73  53  47 E6        30.01S
SLAYTON        PTSUNNY   72  44  37 CALM      30.02F
$$
MNZ065>067-074>077-082>085-091>093-022300-
   South Central Minnesota

CITY           SKY/WX    TMP DP  RH WIND       PRES   REMARKS
MANKATO        PTSUNNY   73  52  46 S5        30.00S
NEW ULM        PTSUNNY   72  50  46 SE3       30.00S
ST JAMES       PTSUNNY   75  54  46 E8        30.00F
FAIRMONT       PTSUNNY   73  46  38 E6        30.00S
GLENCOE        MOSUNNY   75  55  48 CALM      30.00S
FARIBAULT      MOSUNNY   75  54  46 E3        30.00F
OWATONNA       MOSUNNY   73  52  46 SE3       30.01S
WASECA         MOSUNNY   72  52  49 S3        30.02S
ALBERT LEA     MOSUNNY   73  52  46 SE6       30.00F
$$
MNZ078>079-086>088-094>096-022300-
   Southeast Minnesota

CITY           SKY/WX    TMP DP  RH WIND       PRES   REMARKS
ROCHESTER      SUNNY     72  52  49 CALM      30.02S
RED WING       MOSUNNY   75  48  38 S3        29.99S
STANTON        PTSUNNY   75  54  46 E3        29.99F
DODGE CENTER   MOSUNNY   73  54  49 SE3       30.01F
WINONA         SUNNY     73  52  46 SE6       30.00F
AUSTIN         MOSUNNY   75  50  41 E6        30.00F
PRESTON        SUNNY     72  52  49 E3        30.02S
$$
ABBREVIATIONS USED IN REMARKS
   TC - TEMPERATURES IN CELSIUS
  WCI - WIND CHILL INDEX
   HX - HEAT INDEX
  VSB - VISIBILITY
$$


USA.gov is the U.S. government's official web portal to all federal, state and local government web resources and services.